• In United Kingdom
  • List of Countries
  • For 7 days
  • Water Temperature
  • Satellite Maps
  • Weather Map
  • Weather Widgets
  • user-avatar
    Login

    Hourly Weather Oaxaca

    Today, 16 July, Monday

    Time Temperature Precipitation Wind Pressure Humidity
    00:00 +16°C° 0 mm 1 mps 634 mmHg 93%
    01:00 +16°C° 0 mm 1 mps 634 mmHg 92%
    02:00 +16°C° 0 mm 1 mps 634 mmHg 92%
    03:00 +16°C° 0 mm 1 mps 633 mmHg 92%
    04:00 +15°C° 0 mm 1 mps 633 mmHg 92%
    05:00 +15°C° 0 mm 1 mps 633 mmHg 92%
    06:00 +15°C° 0 mm 1 mps 633 mmHg 92%
    07:00 +18°C° 0 mm 1 mps 634 mmHg 84%
    08:00 +21°C° 0 mm 1 mps 635 mmHg 76%
    09:00 +23°C° 0 mm 2 mps 636 mmHg 68%
    10:00 +24°C° 0.1 mm 2 mps 636 mmHg 63%
    11:00 +26°C° 0.1 mm 2 mps 636 mmHg 58%
    12:00 +27°C° 0.1 mm 2 mps 637 mmHg 54%
    13:00 +27°C° 0.8 mm 2 mps 636 mmHg 54%
    14:00 +27°C° 0.8 mm 2 mps 636 mmHg 54%
    15:00 +27°C° 0.8 mm 2 mps 635 mmHg 55%
    16:00 +26°C° 1.1 mm 2 mps 635 mmHg 60%
    17:00 +25°C° 1.1 mm 2 mps 635 mmHg 65%
    18:00 +25°C° 1.1 mm 2 mps 634 mmHg 71%
    19:00 +23°C° 0.6 mm 2 mps 634 mmHg 77%
    20:00 +20°C° 0.6 mm 2 mps 634 mmHg 83%
    21:00 +20°C° 0.6 mm 1 mps 635 mmHg 90%
    22:00 +19°C° 0.4 mm 1 mps 635 mmHg 91%
    23:00 +19°C° 0.4 mm 1 mps 635 mmHg 93%

    Tomorrow, 17 July, Tuesday

    Time Temperature Precipitation Wind Pressure Humidity
    00:00 +18°C° 0.4 mm 1 mps 635 mmHg 94%
    01:00 +18°C° 0.1 mm 1 mps 634 mmHg 94%
    02:00 +18°C° 0.1 mm 1 mps 634 mmHg 94%
    03:00 +18°C° 0.1 mm 1 mps 634 mmHg 94%
    04:00 +18°C° 0.3 mm 1 mps 634 mmHg 94%
    05:00 +18°C° 0.3 mm 1 mps 634 mmHg 94%
    06:00 +16°C° 0.3 mm 1 mps 634 mmHg 94%
    07:00 +19°C° 0.2 mm 1 mps 634 mmHg 88%
    08:00 +21°C° 0.2 mm 1 mps 635 mmHg 82%
    09:00 +21°C° 0.2 mm 2 mps 636 mmHg 77%
    10:00 +24°C° 0.1 mm 2 mps 636 mmHg 68%
    11:00 +26°C° 0.1 mm 2 mps 637 mmHg 59%
    12:00 +28°C° 0.1 mm 2 mps 637 mmHg 50%
    13:00 +28°C° 0.8 mm 2 mps 637 mmHg 50%
    14:00 +28°C° 0.8 mm 2 mps 636 mmHg 51%
    15:00 +28°C° 0.8 mm 3 mps 636 mmHg 51%
    16:00 +27°C° 0.9 mm 2 mps 635 mmHg 57%
    17:00 +26°C° 0.9 mm 2 mps 635 mmHg 62%
    18:00 +25°C° 0.9 mm 2 mps 635 mmHg 67%
    19:00 +23°C° 0.5 mm 2 mps 635 mmHg 74%
    20:00 +20°C° 0.5 mm 2 mps 635 mmHg 81%
    21:00 +18°C° 0.5 mm 2 mps 635 mmHg 88%
    22:00 +19°C° 0 mm 1 mps 635 mmHg 90%
    23:00 +18°C° 0 mm 1 mps 635 mmHg 92%

    Day after tomorrow, 18 July, Wednesday

    Time Temperature Precipitation Wind Pressure Humidity
    00:00 +18°C° 0 mm 1 mps 635 mmHg 93%
    01:00 +18°C° 0 mm 1 mps 634 mmHg 93%
    02:00 +16°C° 0 mm 1 mps 634 mmHg 93%
    03:00 +16°C° 0 mm 1 mps 634 mmHg 92%
    04:00 +16°C° 0 mm 1 mps 634 mmHg 92%
    05:00 +16°C° 0 mm 1 mps 633 mmHg 92%
    06:00 +16°C° 0 mm 1 mps 633 mmHg 92%
    07:00 +19°C° 0 mm 1 mps 634 mmHg 85%
    08:00 +19°C° 0 mm 2 mps 635 mmHg 79%
    09:00 +21°C° 0 mm 2 mps 636 mmHg 72%
    10:00 +24°C° 0 mm 2 mps 636 mmHg 64%
    11:00 +26°C° 0 mm 2 mps 636 mmHg 56%
    12:00 +27°C° 0 mm 3 mps 637 mmHg 47%
    13:00 +27°C° 0.3 mm 3 mps 636 mmHg 47%
    14:00 +28°C° 0.3 mm 3 mps 636 mmHg 47%
    15:00 +28°C° 0.3 mm 3 mps 635 mmHg 47%
    16:00 +27°C° 0.4 mm 3 mps 635 mmHg 53%
    17:00 +26°C° 0.4 mm 3 mps 634 mmHg 58%
    18:00 +25°C° 0.4 mm 2 mps 634 mmHg 64%
    19:00 +23°C° 0.1 mm 2 mps 634 mmHg 71%
    20:00 +20°C° 0.1 mm 2 mps 634 mmHg 79%
    21:00 +18°C° 0.1 mm 2 mps 634 mmHg 87%
    22:00 +19°C° 0 mm 1 mps 634 mmHg 89%
    23:00 +18°C° 0 mm 1 mps 634 mmHg 91%

    19 July, Thursday

    Time Temperature Precipitation Wind Pressure Humidity
    00:00 +18°C° 0 mm 1 mps 634 mmHg 93%
    01:00 +16°C° 0 mm 1 mps 633 mmHg 92%
    02:00 +16°C° 0 mm 1 mps 633 mmHg 91%
    03:00 +16°C° 0 mm 1 mps 633 mmHg 90%
    04:00 +16°C° 0 mm 1 mps 633 mmHg 90%
    05:00 +16°C° 0 mm 1 mps 632 mmHg 90%
    06:00 +15°C° 0 mm 1 mps 632 mmHg 89%
    07:00 +19°C° 0 mm 1 mps 633 mmHg 82%
    08:00 +21°C° 0 mm 1 mps 634 mmHg 74%
    09:00 +23°C° 0 mm 1 mps 635 mmHg 66%
    10:00 +24°C° 0.1 mm 2 mps 635 mmHg 62%
    11:00 +26°C° 0.1 mm 2 mps 635 mmHg 58%
    12:00 +27°C° 0.1 mm 2 mps 635 mmHg 54%
    13:00 +27°C° 1.2 mm 2 mps 635 mmHg 57%
    14:00 +27°C° 1.2 mm 2 mps 634 mmHg 60%
    15:00 +26°C° 1.2 mm 2 mps 634 mmHg 62%
    16:00 +26°C° 1.6 mm 2 mps 634 mmHg 67%
    17:00 +25°C° 1.6 mm 2 mps 633 mmHg 72%
    18:00 +24°C° 1.6 mm 1 mps 633 mmHg 77%
    19:00 +23°C° 1 mm 1 mps 634 mmHg 81%
    20:00 +21°C° 1 mm 1 mps 634 mmHg 86%
    21:00 +20°C° 1 mm 1 mps 634 mmHg 90%
    22:00 +20°C° 0.7 mm 1 mps 634 mmHg 92%
    23:00 +20°C° 0.7 mm 1 mps 634 mmHg 93%

    20 July, Friday

    Time Temperature Precipitation Wind Pressure Humidity
    00:00 +19°C° 0.7 mm 1 mps 634 mmHg 94%
    01:00 +19°C° 0.2 mm 1 mps 634 mmHg 94%
    02:00 +19°C° 0.2 mm 1 mps 633 mmHg 94%
    03:00 +19°C° 0.2 mm 1 mps 633 mmHg 95%
    04:00 +18°C° 0.1 mm 1 mps 633 mmHg 95%
    05:00 +18°C° 0.1 mm 1 mps 633 mmHg 94%
    06:00 +18°C° 0.1 mm 1 mps 633 mmHg 94%
    07:00 +20°C° 0 mm 1 mps 634 mmHg 88%
    08:00 +21°C° 0 mm 1 mps 635 mmHg 81%
    09:00 +23°C° 0 mm 1 mps 635 mmHg 75%
    10:00 +25°C° 0 mm 1 mps 636 mmHg 66%
    11:00 +27°C° 0 mm 2 mps 636 mmHg 58%
    12:00 +29°C° 0 mm 2 mps 636 mmHg 49%
    13:00 +29°C° 0.2 mm 2 mps 636 mmHg 49%
    14:00 +29°C° 0.2 mm 2 mps 635 mmHg 48%
    15:00 +29°C° 0.2 mm 3 mps 635 mmHg 48%
    16:00 +28°C° 0.1 mm 3 mps 635 mmHg 53%
    17:00 +27°C° 0.1 mm 3 mps 634 mmHg 57%
    18:00 +26°C° 0.1 mm 3 mps 634 mmHg 62%
    19:00 +24°C° 0.1 mm 2 mps 634 mmHg 71%
    20:00 +21°C° 0.1 mm 2 mps 634 mmHg 80%
    21:00 +19°C° 0.1 mm 2 mps 634 mmHg 88%
    22:00 +18°C° 0 mm 2 mps 634 mmHg 90%
    23:00 +18°C° 0 mm 2 mps 634 mmHg 92%

    21 July, Saturday

    Time Temperature Precipitation Wind Pressure Humidity
    00:00 +18°C° 0 mm 1 mps 634 mmHg 93%
    01:00 +18°C° 0 mm 1 mps 634 mmHg 92%
    02:00 +16°C° 0 mm 1 mps 633 mmHg 92%
    03:00 +16°C° 0 mm 1 mps 633 mmHg 91%
    04:00 +16°C° 0 mm 1 mps 633 mmHg 90%
    05:00 +16°C° 0 mm 1 mps 633 mmHg 89%
    06:00 +15°C° 0 mm 1 mps 633 mmHg 88%
    07:00 +18°C° 0 mm 2 mps 634 mmHg 81%
    08:00 +20°C° 0 mm 2 mps 635 mmHg 73%
    09:00 +23°C° 0 mm 2 mps 635 mmHg 65%
    10:00 +25°C° 0 mm 3 mps 636 mmHg 58%
    11:00 +26°C° 0 mm 3 mps 636 mmHg 51%
    12:00 +28°C° 0 mm 4 mps 636 mmHg 44%
    13:00 +28°C° 0 mm 4 mps 636 mmHg 44%
    14:00 +28°C° 0 mm 4 mps 635 mmHg 43%
    15:00 +28°C° 0 mm 4 mps 635 mmHg 42%
    16:00 +27°C° 0 mm 4 mps 635 mmHg 46%
    17:00 +26°C° 0 mm 3 mps 635 mmHg 50%
    18:00 +25°C° 0 mm 3 mps 634 mmHg 54%
    19:00 +22°C° 0 mm 3 mps 634 mmHg 63%
    20:00 +20°C° 0 mm 2 mps 634 mmHg 72%
    21:00 +18°C° 0 mm 2 mps 634 mmHg 81%
    22:00 +17°C° 0 mm 2 mps 634 mmHg 83%
    23:00 +17°C° 0 mm 2 mps 634 mmHg 85%
    Show more